Time,TemperatureF,DewpointF,PressureIn,WindDirection,WindDirectionDegrees,WindSpeedMPH,WindSpeedGustMPH,Humidity,HourlyPrecipIn,Conditions,Clouds,dailyrainin,SoftwareType,DateUTC
2013-09-12 00:01:00,78.0,58.0,28.64,ESE,112,1.2,3.0,50,0.00,,,0.00,Rainwise IP-100,2013-09-12 05:01:00,
2013-09-12 00:06:00,77.8,58.0,28.63,ESE,112,0.0,2.0,51,0.00,,,0.00,Rainwise IP-100,2013-09-12 05:06:00,
2013-09-12 00:11:00,77.6,58.0,28.64,ESE,112,2.8,4.0,51,0.00,,,0.00,Rainwise IP-100,2013-09-12 05:11:00,
2013-09-12 00:16:00,77.4,57.0,28.64,East,90,1.6,3.0,51,0.00,,,0.00,Rainwise IP-100,2013-09-12 05:16:00,
2013-09-12 00:21:00,77.2,58.0,28.64,ESE,112,1.6,3.0,52,0.00,,,0.00,Rainwise IP-100,2013-09-12 05:21:00,
2013-09-12 00:26:00,77.0,58.0,28.64,ESE,112,1.9,4.0,52,0.00,,,0.00,Rainwise IP-100,2013-09-12 05:26:00,
2013-09-12 00:31:00,77.0,59.0,28.64,ESE,112,2.8,4.0,53,0.00,,,0.00,Rainwise IP-100,2013-09-12 05:31:00,
2013-09-12 00:36:00,77.0,59.0,28.64,SE,135,2.6,5.0,53,0.00,,,0.00,Rainwise IP-100,2013-09-12 05:36:00,
2013-09-12 00:41:00,77.0,59.0,28.64,SE,135,2.1,4.0,54,0.00,,,0.00,Rainwise IP-100,2013-09-12 05:41:00,
2013-09-12 00:46:00,77.0,60.0,28.64,SSE,157,3.0,4.0,55,0.00,,,0.00,Rainwise IP-100,2013-09-12 05:46:00,
2013-09-12 00:51:00,76.8,59.0,28.64,SE,135,2.3,4.0,55,0.00,,,0.00,Rainwise IP-100,2013-09-12 05:51:00,
2013-09-12 00:56:00,76.7,60.0,28.64,SE,135,1.9,4.0,56,0.00,,,0.00,Rainwise IP-100,2013-09-12 05:56:00,
2013-09-12 01:01:00,76.5,60.0,28.64,SSE,157,1.9,4.0,57,0.00,,,0.00,Rainwise IP-100,2013-09-12 06:01:00,
2013-09-12 01:06:00,76.3,60.0,28.64,SE,135,1.6,3.0,57,0.00,,,0.00,Rainwise IP-100,2013-09-12 06:06:00,
2013-09-12 01:11:00,76.0,60.0,28.64,SSE,157,0.0,2.0,58,0.00,,,0.00,Rainwise IP-100,2013-09-12 06:11:00,
2013-09-12 01:16:00,75.8,60.0,28.64,SSE,157,0.0,2.0,59,0.00,,,0.00,Rainwise IP-100,2013-09-12 06:16:00,
2013-09-12 01:21:00,75.6,60.0,28.64,SSE,157,0.0,1.0,59,0.00,,,0.00,Rainwise IP-100,2013-09-12 06:21:00,
2013-09-12 01:26:00,75.3,60.0,28.63,SSE,157,0.0,0.0,60,0.00,,,0.00,Rainwise IP-100,2013-09-12 06:26:00,
2013-09-12 01:31:00,75.0,60.0,28.63,SSE,157,0.0,0.0,60,0.00,,,0.00,Rainwise IP-100,2013-09-12 06:31:00,
2013-09-12 01:36:00,74.6,60.0,28.64,SSE,157,0.0,0.0,61,0.00,,,0.00,Rainwise IP-100,2013-09-12 06:36:00,
2013-09-12 01:41:00,74.3,60.0,28.64,SSE,157,0.0,0.0,61,0.00,,,0.00,Rainwise IP-100,2013-09-12 06:41:00,
2013-09-12 01:46:00,74.2,60.0,28.64,SSE,157,0.0,0.0,62,0.00,,,0.00,Rainwise IP-100,2013-09-12 06:46:00,
2013-09-12 01:51:00,74.0,61.0,28.64,SSE,157,0.0,0.0,63,0.00,,,0.00,Rainwise IP-100,2013-09-12 06:51:00,
2013-09-12 01:56:00,73.7,60.0,28.64,SSE,157,0.0,0.0,63,0.00,,,0.00,Rainwise IP-100,2013-09-12 06:56:00,
2013-09-12 02:01:00,73.2,60.0,28.64,SSE,157,0.0,0.0,64,0.00,,,0.00,Rainwise IP-100,2013-09-12 07:01:00,
2013-09-12 02:06:00,72.9,60.0,28.64,SSE,157,0.0,0.0,65,0.00,,,0.00,Rainwise IP-100,2013-09-12 07:06:00,
2013-09-12 02:11:00,72.9,61.0,28.64,SSE,157,0.0,1.0,66,0.00,,,0.00,Rainwise IP-100,2013-09-12 07:11:00,
2013-09-12 02:16:00,72.9,61.0,28.64,SSE,157,0.0,0.0,66,0.00,,,0.00,Rainwise IP-100,2013-09-12 07:16:00,
2013-09-12 02:21:00,72.8,61.0,28.64,SSE,157,0.0,0.0,67,0.00,,,0.00,Rainwise IP-100,2013-09-12 07:21:00,
2013-09-12 02:26:00,72.7,61.0,28.64,SSE,157,0.0,0.0,67,0.00,,,0.00,Rainwise IP-100,2013-09-12 07:26:00,
2013-09-12 02:31:00,72.4,61.0,28.64,SSE,157,0.0,0.0,67,0.00,,,0.00,Rainwise IP-100,2013-09-12 07:31:00,
2013-09-12 02:36:00,72.0,60.0,28.64,SSE,157,0.0,0.0,67,0.00,,,0.00,Rainwise IP-100,2013-09-12 07:36:00,
2013-09-12 02:41:00,71.7,60.0,28.64,SSE,157,0.0,0.0,68,0.00,,,0.00,Rainwise IP-100,2013-09-12 07:41:00,
2013-09-12 02:46:00,71.5,60.0,28.64,SSE,157,0.0,0.0,68,0.00,,,0.00,Rainwise IP-100,2013-09-12 07:46:00,
2013-09-12 02:51:00,71.2,60.0,28.64,SSE,157,0.0,0.0,69,0.00,,,0.00,Rainwise IP-100,2013-09-12 07:51:00,
2013-09-12 02:56:00,70.8,60.0,28.64,SSE,157,0.0,0.0,70,0.00,,,0.00,Rainwise IP-100,2013-09-12 07:56:00,
2013-09-12 03:01:00,70.8,60.0,28.64,SSE,157,0.0,0.0,71,0.00,,,0.00,Rainwise IP-100,2013-09-12 08:01:00,
2013-09-12 03:06:00,71.0,61.0,28.64,SSE,157,0.0,0.0,72,0.00,,,0.00,Rainwise IP-100,2013-09-12 08:06:00,
2013-09-12 03:11:00,71.0,61.0,28.64,SSE,157,0.0,0.0,73,0.00,,,0.00,Rainwise IP-100,2013-09-12 08:11:00,
2013-09-12 03:16:00,70.9,61.0,28.64,SSE,157,0.0,0.0,72,0.00,,,0.00,Rainwise IP-100,2013-09-12 08:16:00,
2013-09-12 03:21:00,70.8,61.0,28.64,SSE,157,0.0,0.0,73,0.00,,,0.00,Rainwise IP-100,2013-09-12 08:21:00,
2013-09-12 03:26:00,70.9,62.0,28.64,SSE,157,0.0,0.0,74,0.00,,,0.00,Rainwise IP-100,2013-09-12 08:26:00,
2013-09-12 03:31:00,71.1,62.0,28.64,SSE,157,0.0,0.0,74,0.00,,,0.00,Rainwise IP-100,2013-09-12 08:31:00,
2013-09-12 03:36:00,71.2,63.0,28.64,SSE,157,0.0,0.0,75,0.00,,,0.00,Rainwise IP-100,2013-09-12 08:36:00,
2013-09-12 03:41:00,71.2,63.0,28.64,SSE,157,0.0,0.0,75,0.00,,,0.00,Rainwise IP-100,2013-09-12 08:41:00,
2013-09-12 03:46:00,71.2,63.0,28.64,SSE,157,0.0,0.0,75,0.00,,,0.00,Rainwise IP-100,2013-09-12 08:46:00,
2013-09-12 03:51:00,71.5,63.0,28.64,SSE,157,0.0,0.0,75,0.00,,,0.00,Rainwise IP-100,2013-09-12 08:51:00,
2013-09-12 03:56:00,71.6,63.0,28.64,SSE,157,0.0,0.0,75,0.00,,,0.00,Rainwise IP-100,2013-09-12 08:56:00,
2013-09-12 04:01:00,71.7,63.0,28.64,SSE,157,0.0,0.0,75,0.00,,,0.00,Rainwise IP-100,2013-09-12 09:01:00,
2013-09-12 04:06:00,71.5,63.0,28.64,SSE,157,0.0,0.0,75,0.00,,,0.00,Rainwise IP-100,2013-09-12 09:06:00,
2013-09-12 04:11:00,71.2,63.0,28.64,SSE,157,0.0,0.0,75,0.00,,,0.00,Rainwise IP-100,2013-09-12 09:11:00,
2013-09-12 04:16:00,71.0,63.0,28.64,SSE,157,0.0,0.0,76,0.00,,,0.00,Rainwise IP-100,2013-09-12 09:16:00,
2013-09-12 04:21:00,70.8,62.0,28.64,SSE,157,0.0,0.0,76,0.00,,,0.00,Rainwise IP-100,2013-09-12 09:21:00,
2013-09-12 04:26:00,70.4,62.0,28.64,SSE,157,0.0,0.0,76,0.00,,,0.00,Rainwise IP-100,2013-09-12 09:26:00,
2013-09-12 04:31:00,70.0,62.0,28.64,SSE,157,0.0,0.0,76,0.00,,,0.00,Rainwise IP-100,2013-09-12 09:31:00,
2013-09-12 04:36:00,69.6,61.0,28.64,SSE,157,0.0,0.0,76,0.00,,,0.00,Rainwise IP-100,2013-09-12 09:36:00,
2013-09-12 04:41:00,69.3,61.0,28.64,SSE,157,0.0,0.0,76,0.00,,,0.00,Rainwise IP-100,2013-09-12 09:41:00,
2013-09-12 04:46:00,69.0,61.0,28.64,SSE,157,0.0,0.0,77,0.00,,,0.00,Rainwise IP-100,2013-09-12 09:46:00,
2013-09-12 04:51:00,68.9,62.0,28.63,SSE,157,0.0,0.0,79,0.00,,,0.00,Rainwise IP-100,2013-09-12 09:51:00,
2013-09-12 04:56:00,68.9,62.0,28.64,SSE,157,0.0,0.0,80,0.00,,,0.00,Rainwise IP-100,2013-09-12 09:56:00,
2013-09-12 05:01:00,68.8,61.0,28.64,SSE,157,0.0,0.0,79,0.00,,,0.00,Rainwise IP-100,2013-09-12 10:01:00,
2013-09-12 05:06:00,68.6,61.0,28.64,SSE,157,0.0,0.0,79,0.00,,,0.00,Rainwise IP-100,2013-09-12 10:06:00,
2013-09-12 05:11:00,68.3,61.0,28.64,SSE,157,0.0,0.0,80,0.00,,,0.00,Rainwise IP-100,2013-09-12 10:11:00,
2013-09-12 05:16:00,68.0,61.0,28.64,SSE,157,0.0,0.0,80,0.00,,,0.00,Rainwise IP-100,2013-09-12 10:16:00,
2013-09-12 05:21:00,67.8,61.0,28.64,SSE,157,0.0,0.0,80,0.00,,,0.00,Rainwise IP-100,2013-09-12 10:21:00,
2013-09-12 05:26:00,67.5,61.0,28.64,SSE,157,0.0,0.0,81,0.00,,,0.00,Rainwise IP-100,2013-09-12 10:26:00,
2013-09-12 05:31:00,67.3,61.0,28.64,SSE,157,0.0,0.0,81,0.00,,,0.00,Rainwise IP-100,2013-09-12 10:31:00,
2013-09-12 05:36:00,67.1,61.0,28.64,SSE,157,0.0,0.0,82,0.00,,,0.00,Rainwise IP-100,2013-09-12 10:36:00,
2013-09-12 05:41:00,67.0,61.0,28.64,SSE,157,0.0,0.0,82,0.00,,,0.00,Rainwise IP-100,2013-09-12 10:41:00,
2013-09-12 05:46:00,66.9,62.0,28.64,SSE,157,0.0,0.0,83,0.00,,,0.00,Rainwise IP-100,2013-09-12 10:46:00,
2013-09-12 05:51:00,66.9,62.0,28.64,SSE,157,0.0,0.0,83,0.00,,,0.00,Rainwise IP-100,2013-09-12 10:51:00,
2013-09-12 05:56:00,66.8,61.0,28.64,SSE,157,0.0,0.0,83,0.00,,,0.00,Rainwise IP-100,2013-09-12 10:56:00,
2013-09-12 06:01:00,66.7,61.0,28.64,SSE,157,0.0,0.0,83,0.00,,,0.00,Rainwise IP-100,2013-09-12 11:01:00,
2013-09-12 06:06:00,66.6,61.0,28.64,SSE,157,0.0,0.0,84,0.00,,,0.00,Rainwise IP-100,2013-09-12 11:06:00,
2013-09-12 06:11:00,66.5,61.0,28.64,SSE,157,0.0,0.0,84,0.00,,,0.00,Rainwise IP-100,2013-09-12 11:11:00,
2013-09-12 06:16:00,66.5,62.0,28.64,SSE,157,0.0,0.0,85,0.00,,,0.00,Rainwise IP-100,2013-09-12 11:16:00,
2013-09-12 06:21:00,66.6,62.0,28.64,SSE,157,0.0,0.0,85,0.00,,,0.00,Rainwise IP-100,2013-09-12 11:21:00,
2013-09-12 06:26:00,66.5,62.0,28.64,SSE,157,0.0,0.0,85,0.00,,,0.00,Rainwise IP-100,2013-09-12 11:26:00,
2013-09-12 06:31:00,66.3,61.0,28.65,SSE,157,0.0,0.0,85,0.00,,,0.00,Rainwise IP-100,2013-09-12 11:31:00,
2013-09-12 06:36:00,66.2,61.0,28.64,SSE,157,0.0,0.0,85,0.00,,,0.00,Rainwise IP-100,2013-09-12 11:36:00,
2013-09-12 06:41:00,66.1,61.0,28.64,SSE,157,0.0,0.0,85,0.00,,,0.00,Rainwise IP-100,2013-09-12 11:41:00,
2013-09-12 06:46:00,66.1,61.0,28.65,SSE,157,0.0,0.0,86,0.00,,,0.00,Rainwise IP-100,2013-09-12 11:46:00,
2013-09-12 06:51:00,66.1,61.0,28.65,SSE,157,0.0,0.0,86,0.00,,,0.00,Rainwise IP-100,2013-09-12 11:51:00,
2013-09-12 06:56:00,66.3,62.0,28.65,SSE,157,0.0,0.0,87,0.00,,,0.00,Rainwise IP-100,2013-09-12 11:56:00,
2013-09-12 07:01:00,66.5,62.0,28.65,SSE,157,0.0,0.0,87,0.00,,,0.00,Rainwise IP-100,2013-09-12 12:01:00,
2013-09-12 07:06:00,66.6,62.0,28.65,SSE,157,0.0,0.0,86,0.00,,,0.00,Rainwise IP-100,2013-09-12 12:06:00,
2013-09-12 07:11:00,66.7,62.0,28.65,SSE,157,0.0,0.0,87,0.00,,,0.00,Rainwise IP-100,2013-09-12 12:11:00,
2013-09-12 07:16:00,66.8,63.0,28.66,SSE,157,0.0,0.0,88,0.00,,,0.00,Rainwise IP-100,2013-09-12 12:16:00,
2013-09-12 07:21:00,66.8,62.0,28.65,SSE,157,0.0,0.0,87,0.00,,,0.00,Rainwise IP-100,2013-09-12 12:21:00,
2013-09-12 07:26:00,66.8,62.0,28.65,SSE,157,0.0,0.0,87,0.00,,,0.00,Rainwise IP-100,2013-09-12 12:26:00,
2013-09-12 07:31:00,67.2,63.0,28.66,ESE,112,0.0,0.0,87,0.00,,,0.00,Rainwise IP-100,2013-09-12 12:31:00,
2013-09-12 07:36:00,67.7,64.0,28.66,ESE,112,0.0,0.0,88,0.00,,,0.00,Rainwise IP-100,2013-09-12 12:36:00,
2013-09-12 07:41:00,68.0,64.0,28.66,ESE,112,0.0,0.0,87,0.00,,,0.00,Rainwise IP-100,2013-09-12 12:41:00,
2013-09-12 07:46:00,68.3,63.0,28.66,ESE,112,0.0,0.0,86,0.00,,,0.00,Rainwise IP-100,2013-09-12 12:46:00,
2013-09-12 07:51:00,68.8,64.0,28.67,ENE,67,2.3,2.3,85,0.00,,,0.00,Rainwise IP-100,2013-09-12 12:51:00,
2013-09-12 07:56:00,69.4,64.0,28.66,ENE,67,0.0,2.0,84,0.00,,,0.00,Rainwise IP-100,2013-09-12 12:56:00,
2013-09-12 08:01:00,70.1,64.0,28.66,ENE,67,1.4,2.0,83,0.00,,,0.00,Rainwise IP-100,2013-09-12 13:01:00,
2013-09-12 08:06:00,70.9,65.0,28.66,ENE,67,2.1,2.1,82,0.00,,,0.00,Rainwise IP-100,2013-09-12 13:06:00,
2013-09-12 08:11:00,71.5,65.0,28.67,ENE,67,2.3,2.3,81,0.00,,,0.00,Rainwise IP-100,2013-09-12 13:11:00,
2013-09-12 08:16:00,72.0,65.0,28.66,ENE,67,2.8,3.0,80,0.00,,,0.00,Rainwise IP-100,2013-09-12 13:16:00,
2013-09-12 08:21:00,72.4,65.0,28.67,ENE,67,1.9,4.0,79,0.00,,,0.00,Rainwise IP-100,2013-09-12 13:21:00,
2013-09-12 08:26:00,72.8,65.0,28.67,ENE,67,2.1,4.0,78,0.00,,,0.00,Rainwise IP-100,2013-09-12 13:26:00,
2013-09-12 08:31:00,73.2,66.0,28.67,ENE,67,3.5,4.0,77,0.00,,,0.00,Rainwise IP-100,2013-09-12 13:31:00,
2013-09-12 08:36:00,73.6,66.0,28.66,East,90,3.7,5.0,77,0.00,,,0.00,Rainwise IP-100,2013-09-12 13:36:00,
2013-09-12 08:41:00,74.0,66.0,28.67,ENE,67,3.0,5.0,76,0.00,,,0.00,Rainwise IP-100,2013-09-12 13:41:00,
2013-09-12 08:46:00,74.7,66.0,28.66,ESE,112,1.6,4.0,75,0.00,,,0.00,Rainwise IP-100,2013-09-12 13:46:00,
2013-09-12 08:51:00,75.4,67.0,28.66,East,90,2.6,3.0,75,0.00,,,0.00,Rainwise IP-100,2013-09-12 13:51:00,
2013-09-12 08:56:00,75.9,67.0,28.66,ENE,67,1.6,3.0,74,0.00,,,0.00,Rainwise IP-100,2013-09-12 13:56:00,
2013-09-12 09:01:00,76.4,67.0,28.67,ENE,67,1.9,4.0,73,0.00,,,0.00,Rainwise IP-100,2013-09-12 14:01:00,
2013-09-12 09:06:00,76.8,67.0,28.67,SSE,157,2.1,3.0,73,0.00,,,0.00,Rainwise IP-100,2013-09-12 14:06:00,
2013-09-12 09:11:00,77.5,68.0,28.67,SSE,157,0.0,2.0,72,0.00,,,0.00,Rainwise IP-100,2013-09-12 14:11:00,
2013-09-12 09:16:00,78.7,68.0,28.67,NNW,337,2.6,2.6,71,0.00,,,0.00,Rainwise IP-100,2013-09-12 14:16:00,
2013-09-12 09:21:00,79.6,69.0,28.67,NNW,337,2.1,3.0,70,0.00,,,0.00,Rainwise IP-100,2013-09-12 14:21:00,
2013-09-12 09:26:00,79.8,68.0,28.68,NNW,337,0.0,3.0,69,0.00,,,0.00,Rainwise IP-100,2013-09-12 14:26:00,
2013-09-12 09:31:00,80.2,69.0,28.67,SSW,202,2.3,6.0,69,0.00,,,0.00,Rainwise IP-100,2013-09-12 14:31:00,
2013-09-12 09:36:00,80.5,68.0,28.67,NNE,22,0.0,4.0,67,0.00,,,0.00,Rainwise IP-100,2013-09-12 14:36:00,
2013-09-12 09:41:00,80.4,68.0,28.67,NNE,22,0.0,3.0,66,0.00,,,0.00,Rainwise IP-100,2013-09-12 14:41:00,
2013-09-12 09:46:00,80.8,68.0,28.67,WSW,247,4.7,4.7,66,0.00,,,0.00,Rainwise IP-100,2013-09-12 14:46:00,
2013-09-12 09:51:00,81.0,68.0,28.67,SSW,202,2.3,4.0,65,0.00,,,0.00,Rainwise IP-100,2013-09-12 14:51:00,
2013-09-12 09:56:00,81.0,68.0,28.67,SSW,202,4.2,4.2,65,0.00,,,0.00,Rainwise IP-100,2013-09-12 14:56:00,
2013-09-12 10:01:00,81.2,68.0,28.67,East,90,2.3,6.0,64,0.00,,,0.00,Rainwise IP-100,2013-09-12 15:01:00,
2013-09-12 10:06:00,81.1,67.0,28.68,SE,135,3.3,5.0,63,0.00,,,0.00,Rainwise IP-100,2013-09-12 15:06:00,
2013-09-12 10:11:00,81.5,67.0,28.68,SSW,202,3.7,6.0,62,0.00,,,0.00,Rainwise IP-100,2013-09-12 15:11:00,
2013-09-12 10:16:00,82.3,66.0,28.68,SSW,202,3.5,6.0,59,0.00,,,0.00,Rainwise IP-100,2013-09-12 15:16:00,
2013-09-12 10:21:00,82.5,66.0,28.68,ESE,112,0.0,5.0,57,0.00,,,0.00,Rainwise IP-100,2013-09-12 15:21:00,
2013-09-12 10:26:00,82.6,66.0,28.68,SSW,202,2.3,5.0,57,0.00,,,0.00,Rainwise IP-100,2013-09-12 15:26:00,
2013-09-12 10:31:00,83.4,66.0,28.68,SSE,157,1.9,4.0,57,0.00,,,0.00,Rainwise IP-100,2013-09-12 15:31:00,
2013-09-12 10:36:00,83.8,66.0,28.68,East,90,6.3,6.3,55,0.00,,,0.00,Rainwise IP-100,2013-09-12 15:36:00,
2013-09-12 10:41:00,83.1,65.0,28.68,SW,225,1.6,7.0,55,0.00,,,0.00,Rainwise IP-100,2013-09-12 15:41:00,
2013-09-12 10:46:00,83.2,65.0,28.68,SSE,157,3.5,8.0,55,0.00,,,0.00,Rainwise IP-100,2013-09-12 15:46:00,
2013-09-12 10:51:00,84.1,66.0,28.68,SE,135,8.6,8.6,54,0.00,,,0.00,Rainwise IP-100,2013-09-12 15:51:00,
2013-09-12 10:56:00,83.8,65.0,28.68,SSE,157,2.1,8.0,54,0.00,,,0.00,Rainwise IP-100,2013-09-12 15:56:00,
2013-09-12 11:01:00,83.9,66.0,28.68,WSW,247,0.0,6.0,55,0.00,,,0.00,Rainwise IP-100,2013-09-12 16:01:00,
2013-09-12 11:06:00,85.0,66.0,28.68,SW,225,2.8,11.0,54,0.00,,,0.00,Rainwise IP-100,2013-09-12 16:06:00,
2013-09-12 11:11:00,85.5,66.0,28.68,SSW,202,3.7,9.0,53,0.00,,,0.00,Rainwise IP-100,2013-09-12 16:11:00,
2013-09-12 11:16:00,85.6,66.0,28.68,WSW,247,4.0,8.0,53,0.00,,,0.00,Rainwise IP-100,2013-09-12 16:16:00,
2013-09-12 11:21:00,85.6,66.0,28.67,SSW,202,3.7,8.0,53,0.00,,,0.00,Rainwise IP-100,2013-09-12 16:21:00,
2013-09-12 11:26:00,85.7,66.0,28.68,SSW,202,4.2,6.0,53,0.00,,,0.00,Rainwise IP-100,2013-09-12 16:26:00,
2013-09-12 11:31:00,85.6,66.0,28.68,SW,225,0.0,8.0,52,0.00,,,0.00,Rainwise IP-100,2013-09-12 16:31:00,
2013-09-12 11:36:00,85.6,65.0,28.68,WSW,247,5.8,9.0,51,0.00,,,0.00,Rainwise IP-100,2013-09-12 16:36:00,
2013-09-12 11:41:00,85.6,66.0,28.67,SW,225,3.7,7.0,52,0.00,,,0.00,Rainwise IP-100,2013-09-12 16:41:00,
2013-09-12 11:46:00,85.7,65.0,28.67,ENE,67,3.0,7.0,51,0.00,,,0.00,Rainwise IP-100,2013-09-12 16:46:00,
2013-09-12 11:51:00,86.3,65.0,28.68,NNW,337,5.1,7.0,50,0.00,,,0.00,Rainwise IP-100,2013-09-12 16:51:00,
2013-09-12 11:56:00,86.3,65.0,28.67,SSE,157,2.1,8.0,49,0.00,,,0.00,Rainwise IP-100,2013-09-12 16:56:00,
2013-09-12 12:01:00,86.0,64.0,28.67,SE,135,4.7,12.0,49,0.00,,,0.00,Rainwise IP-100,2013-09-12 17:01:00,
2013-09-12 12:06:00,85.7,64.0,28.67,SE,135,3.0,10.0,49,0.00,,,0.00,Rainwise IP-100,2013-09-12 17:06:00,
2013-09-12 12:11:00,86.2,64.0,28.67,SW,225,4.2,6.0,48,0.00,,,0.00,Rainwise IP-100,2013-09-12 17:11:00,
2013-09-12 12:16:00,87.2,64.0,28.67,SSE,157,7.0,7.0,47,0.00,,,0.00,Rainwise IP-100,2013-09-12 17:16:00,
2013-09-12 12:21:00,87.7,64.0,28.66,ENE,67,6.3,8.0,46,0.00,,,0.00,Rainwise IP-100,2013-09-12 17:21:00,
2013-09-12 12:26:00,87.4,63.0,28.66,ESE,112,1.6,7.0,45,0.00,,,0.00,Rainwise IP-100,2013-09-12 17:26:00,
2013-09-12 12:31:00,87.5,63.0,28.66,NNE,22,2.1,11.0,45,0.00,,,0.00,Rainwise IP-100,2013-09-12 17:31:00,
2013-09-12 12:36:00,87.8,64.0,28.66,SE,135,3.0,6.0,45,0.00,,,0.00,Rainwise IP-100,2013-09-12 17:36:00,
2013-09-12 12:41:00,87.4,63.0,28.66,ESE,112,8.9,8.9,45,0.00,,,0.00,Rainwise IP-100,2013-09-12 17:41:00,
2013-09-12 12:46:00,87.0,63.0,28.65,ENE,67,5.4,8.0,46,0.00,,,0.00,Rainwise IP-100,2013-09-12 17:46:00,
2013-09-12 12:51:00,87.1,63.0,28.66,NE,45,7.2,7.2,46,0.00,,,0.00,Rainwise IP-100,2013-09-12 17:51:00,
2013-09-12 12:56:00,87.3,63.0,28.65,SSE,157,7.0,9.0,45,0.00,,,0.00,Rainwise IP-100,2013-09-12 17:56:00,
2013-09-12 13:01:00,88.3,64.0,28.65,ESE,112,4.9,17.0,45,0.00,,,0.00,Rainwise IP-100,2013-09-12 18:01:00,
2013-09-12 13:06:00,89.0,64.0,28.65,SSE,157,4.4,11.0,44,0.00,,,0.00,Rainwise IP-100,2013-09-12 18:06:00,
2013-09-12 13:11:00,89.1,63.0,28.64,SSE,157,5.1,12.0,43,0.00,,,0.00,Rainwise IP-100,2013-09-12 18:11:00,
2013-09-12 13:16:00,89.7,64.0,28.64,SSE,157,9.3,9.3,43,0.00,,,0.00,Rainwise IP-100,2013-09-12 18:16:00,
2013-09-12 13:21:00,90.0,64.0,28.64,ESE,112,4.9,10.0,42,0.00,,,0.00,Rainwise IP-100,2013-09-12 18:21:00,
2013-09-12 13:26:00,89.1,63.0,28.64,SSW,202,4.9,13.0,42,0.00,,,0.00,Rainwise IP-100,2013-09-12 18:26:00,
2013-09-12 13:31:00,88.9,63.0,28.63,NNE,22,3.0,8.0,42,0.00,,,0.00,Rainwise IP-100,2013-09-12 18:31:00,
2013-09-12 13:36:00,89.4,62.0,28.64,SSE,157,9.8,11.0,41,0.00,,,0.00,Rainwise IP-100,2013-09-12 18:36:00,
2013-09-12 13:41:00,89.7,61.0,28.63,ENE,67,6.8,12.0,39,0.00,,,0.00,Rainwise IP-100,2013-09-12 18:41:00,
2013-09-12 13:46:00,89.9,61.0,28.62,ESE,112,6.1,8.0,38,0.00,,,0.00,Rainwise IP-100,2013-09-12 18:46:00,
2013-09-12 13:51:00,89.8,61.0,28.62,SSE,157,6.5,12.0,38,0.00,,,0.00,Rainwise IP-100,2013-09-12 18:51:00,
2013-09-12 13:56:00,90.3,60.0,28.62,East,90,4.4,13.0,37,0.00,,,0.00,Rainwise IP-100,2013-09-12 18:56:00,
2013-09-12 14:01:00,90.9,60.0,28.62,East,90,3.5,11.0,36,0.00,,,0.00,Rainwise IP-100,2013-09-12 19:01:00,
2013-09-12 14:06:00,91.1,59.0,28.61,ENE,67,3.3,10.0,35,0.00,,,0.00,Rainwise IP-100,2013-09-12 19:06:00,
2013-09-12 14:11:00,91.5,60.0,28.61,SE,135,1.2,16.0,35,0.00,,,0.00,Rainwise IP-100,2013-09-12 19:11:00,
2013-09-12 14:16:00,91.3,60.0,28.61,ESE,112,4.2,14.0,35,0.00,,,0.00,Rainwise IP-100,2013-09-12 19:16:00,
2013-09-12 14:21:00,91.2,60.0,28.61,SSE,157,6.8,10.0,35,0.00,,,0.00,Rainwise IP-100,2013-09-12 19:21:00,
2013-09-12 14:26:00,91.5,60.0,28.61,ESE,112,5.6,12.0,35,0.00,,,0.00,Rainwise IP-100,2013-09-12 19:26:00,
2013-09-12 14:31:00,91.0,59.0,28.61,NE,45,4.2,10.0,35,0.00,,,0.00,Rainwise IP-100,2013-09-12 19:31:00,
2013-09-12 14:36:00,90.3,59.0,28.61,ESE,112,4.4,13.0,35,0.00,,,0.00,Rainwise IP-100,2013-09-12 19:36:00,
2013-09-12 14:41:00,89.8,59.0,28.60,ENE,67,7.2,14.0,36,0.00,,,0.00,Rainwise IP-100,2013-09-12 19:41:00,
2013-09-12 14:46:00,89.8,59.0,28.60,East,90,2.3,12.0,36,0.00,,,0.00,Rainwise IP-100,2013-09-12 19:46:00,
2013-09-12 14:51:00,90.6,59.0,28.60,SE,135,7.5,9.0,35,0.00,,,0.00,Rainwise IP-100,2013-09-12 19:51:00,
2013-09-12 14:56:00,91.3,60.0,28.59,East,90,2.8,9.0,35,0.00,,,0.00,Rainwise IP-100,2013-09-12 19:56:00,
2013-09-12 15:01:00,90.8,59.0,28.58,ENE,67,6.3,11.0,35,0.00,,,0.00,Rainwise IP-100,2013-09-12 20:01:00,
2013-09-12 15:06:00,90.3,59.0,28.59,South,180,5.4,12.0,35,0.00,,,0.00,Rainwise IP-100,2013-09-12 20:06:00,
2013-09-12 15:11:00,90.6,59.0,28.58,ESE,112,5.8,11.0,35,0.00,,,0.00,Rainwise IP-100,2013-09-12 20:11:00,
2013-09-12 15:16:00,90.8,59.0,28.58,SE,135,6.5,11.0,35,0.00,,,0.00,Rainwise IP-100,2013-09-12 20:16:00,
2013-09-12 15:21:00,90.6,59.0,28.58,ENE,67,8.9,12.0,35,0.00,,,0.00,Rainwise IP-100,2013-09-12 20:21:00,
2013-09-12 15:26:00,90.2,59.0,28.58,ESE,112,5.6,10.0,35,0.00,,,0.00,Rainwise IP-100,2013-09-12 20:26:00,
2013-09-12 15:31:00,90.1,59.0,28.58,ENE,67,6.5,10.0,36,0.00,,,0.00,Rainwise IP-100,2013-09-12 20:31:00,
2013-09-12 15:36:00,90.6,60.0,28.58,ENE,67,4.2,11.0,36,0.00,,,0.00,Rainwise IP-100,2013-09-12 20:36:00,
2013-09-12 15:41:00,91.0,59.0,28.56,ENE,67,11.9,21.0,35,0.00,,,0.00,Rainwise IP-100,2013-09-12 20:41:00,
2013-09-12 15:46:00,91.9,59.0,28.57,ESE,112,4.4,21.0,34,0.00,,,0.00,Rainwise IP-100,2013-09-12 20:46:00,
2013-09-12 15:51:00,92.0,59.0,28.56,East,90,8.4,11.0,34,0.00,,,0.00,Rainwise IP-100,2013-09-12 20:51:00,
2013-09-12 15:56:00,91.6,59.0,28.57,SE,135,3.0,14.0,34,0.00,,,0.00,Rainwise IP-100,2013-09-12 20:56:00,
2013-09-12 16:01:00,91.8,59.0,28.56,SSE,157,4.0,14.0,34,0.00,,,0.00,Rainwise IP-100,2013-09-12 21:01:00,
2013-09-12 16:06:00,92.2,60.0,28.56,ENE,67,3.0,13.0,34,0.00,,,0.00,Rainwise IP-100,2013-09-12 21:06:00,
2013-09-12 16:11:00,92.5,60.0,28.56,ENE,67,8.6,11.0,34,0.00,,,0.00,Rainwise IP-100,2013-09-12 21:11:00,
2013-09-12 16:16:00,92.2,60.0,28.56,ESE,112,6.1,18.0,34,0.00,,,0.00,Rainwise IP-100,2013-09-12 21:16:00,
2013-09-12 16:21:00,91.6,59.0,28.56,SSE,157,2.6,10.0,34,0.00,,,0.00,Rainwise IP-100,2013-09-12 21:21:00,
2013-09-12 16:26:00,91.6,59.0,28.55,ESE,112,9.8,11.0,34,0.00,,,0.00,Rainwise IP-100,2013-09-12 21:26:00,
2013-09-12 16:31:00,92.2,60.0,28.55,South,180,10.3,13.0,34,0.00,,,0.00,Rainwise IP-100,2013-09-12 21:31:00,
2013-09-12 16:36:00,92.6,59.0,28.55,ENE,67,7.0,13.0,33,0.00,,,0.00,Rainwise IP-100,2013-09-12 21:36:00,
2013-09-12 16:41:00,92.5,59.0,28.54,ENE,67,3.3,8.0,33,0.00,,,0.00,Rainwise IP-100,2013-09-12 21:41:00,
2013-09-12 16:46:00,92.1,59.0,28.55,East,90,8.9,13.0,33,0.00,,,0.00,Rainwise IP-100,2013-09-12 21:46:00,
2013-09-12 16:51:00,92.0,59.0,28.54,East,90,7.5,15.0,33,0.00,,,0.00,Rainwise IP-100,2013-09-12 21:51:00,
2013-09-12 16:56:00,92.1,59.0,28.55,ENE,67,10.3,10.3,33,0.00,,,0.00,Rainwise IP-100,2013-09-12 21:56:00,
2013-09-12 17:01:00,92.0,59.0,28.54,East,90,6.1,12.0,33,0.00,,,0.00,Rainwise IP-100,2013-09-12 22:01:00,
2013-09-12 17:06:00,91.8,59.0,28.55,ENE,67,9.8,11.0,33,0.00,,,0.00,Rainwise IP-100,2013-09-12 22:06:00,
2013-09-12 17:11:00,92.0,59.0,28.54,SSE,157,3.3,12.0,33,0.00,,,0.00,Rainwise IP-100,2013-09-12 22:11:00,
2013-09-12 17:16:00,91.9,59.0,28.54,SE,135,7.7,14.0,33,0.00,,,0.00,Rainwise IP-100,2013-09-12 22:16:00,
2013-09-12 17:21:00,91.8,59.0,28.54,ESE,112,5.8,14.0,33,0.00,,,0.00,Rainwise IP-100,2013-09-12 22:21:00,
2013-09-12 17:26:00,92.2,59.0,28.54,East,90,6.5,12.0,33,0.00,,,0.00,Rainwise IP-100,2013-09-12 22:26:00,
2013-09-12 17:31:00,92.2,59.0,28.53,SSE,157,1.2,8.0,33,0.00,,,0.00,Rainwise IP-100,2013-09-12 22:31:00,
2013-09-12 17:36:00,91.9,59.0,28.53,NE,45,6.1,11.0,33,0.00,,,0.00,Rainwise IP-100,2013-09-12 22:36:00,
2013-09-12 17:41:00,92.1,59.0,28.53,ENE,67,6.5,9.0,33,0.00,,,0.00,Rainwise IP-100,2013-09-12 22:41:00,
2013-09-12 17:46:00,92.1,59.0,28.53,SE,135,6.1,15.0,33,0.00,,,0.00,Rainwise IP-100,2013-09-12 22:46:00,
2013-09-12 17:51:00,92.1,59.0,28.53,SE,135,7.7,7.7,33,0.00,,,0.00,Rainwise IP-100,2013-09-12 22:51:00,
2013-09-12 17:56:00,92.0,59.0,28.53,South,180,6.5,12.0,33,0.00,,,0.00,Rainwise IP-100,2013-09-12 22:56:00,
2013-09-12 18:01:00,91.8,59.0,28.54,East,90,3.7,11.0,33,0.00,,,0.00,Rainwise IP-100,2013-09-12 23:01:00,
2013-09-12 18:06:00,91.7,59.0,28.53,ESE,112,4.0,9.0,33,0.00,,,0.00,Rainwise IP-100,2013-09-12 23:06:00,
2013-09-12 18:11:00,91.5,58.0,28.53,SE,135,0.0,8.0,33,0.00,,,0.00,Rainwise IP-100,2013-09-12 23:11:00,
2013-09-12 18:16:00,91.7,59.0,28.53,ENE,67,8.4,9.0,33,0.00,,,0.00,Rainwise IP-100,2013-09-12 23:16:00,
2013-09-12 18:21:00,91.7,59.0,28.53,ESE,112,4.2,12.0,33,0.00,,,0.00,Rainwise IP-100,2013-09-12 23:21:00,
2013-09-12 18:26:00,91.2,58.0,28.53,SE,135,5.4,11.0,33,0.00,,,0.00,Rainwise IP-100,2013-09-12 23:26:00,
2013-09-12 18:31:00,91.1,58.0,28.53,ENE,67,3.3,9.0,33,0.00,,,0.00,Rainwise IP-100,2013-09-12 23:31:00,
2013-09-12 18:36:00,91.3,58.0,28.53,ENE,67,7.9,8.0,33,0.00,,,0.00,Rainwise IP-100,2013-09-12 23:36:00,
2013-09-12 18:41:00,91.2,58.0,28.53,SE,135,6.1,10.0,33,0.00,,,0.00,Rainwise IP-100,2013-09-12 23:41:00,
2013-09-12 18:46:00,90.8,57.0,28.53,ESE,112,4.9,9.0,33,0.00,,,0.00,Rainwise IP-100,2013-09-12 23:46:00,
2013-09-12 18:51:00,90.6,57.0,28.53,SSE,157,6.8,10.0,33,0.00,,,0.00,Rainwise IP-100,2013-09-12 23:51:00,
2013-09-12 18:56:00,90.5,58.0,28.53,South,180,3.5,8.0,34,0.00,,,0.00,Rainwise IP-100,2013-09-12 23:56:00,
2013-09-12 19:01:00,90.2,58.0,28.53,ESE,112,3.5,7.0,34,0.00,,,0.00,Rainwise IP-100,2013-09-13 00:01:00,
2013-09-12 19:06:00,90.1,57.0,28.53,SSE,157,5.6,9.0,34,0.00,,,0.00,Rainwise IP-100,2013-09-13 00:06:00,
2013-09-12 19:11:00,90.1,57.0,28.54,SE,135,2.6,7.0,34,0.00,,,0.00,Rainwise IP-100,2013-09-13 00:11:00,
2013-09-12 19:16:00,89.8,57.0,28.54,SSW,202,2.6,6.0,34,0.00,,,0.00,Rainwise IP-100,2013-09-13 00:16:00,
2013-09-12 19:21:00,89.5,57.0,28.54,ENE,67,4.2,4.2,34,0.00,,,0.00,Rainwise IP-100,2013-09-13 00:21:00,
2013-09-12 19:26:00,89.2,58.0,28.54,ESE,112,2.8,4.0,35,0.00,,,0.00,Rainwise IP-100,2013-09-13 00:26:00,
2013-09-12 19:31:00,88.7,57.0,28.54,ESE,112,2.8,4.0,35,0.00,,,0.00,Rainwise IP-100,2013-09-13 00:31:00,
2013-09-12 19:36:00,88.3,57.0,28.54,East,90,2.1,4.0,35,0.00,,,0.00,Rainwise IP-100,2013-09-13 00:36:00,
2013-09-12 19:41:00,87.9,57.0,28.54,ESE,112,1.2,3.0,35,0.00,,,0.00,Rainwise IP-100,2013-09-13 00:41:00,
2013-09-12 19:46:00,87.5,57.0,28.54,ESE,112,1.9,2.0,36,0.00,,,0.00,Rainwise IP-100,2013-09-13 00:46:00,
2013-09-12 19:51:00,87.1,56.0,28.55,East,90,1.2,2.0,36,0.00,,,0.00,Rainwise IP-100,2013-09-13 00:51:00,
2013-09-12 19:56:00,86.8,57.0,28.54,East,90,0.0,2.0,37,0.00,,,0.00,Rainwise IP-100,2013-09-13 00:56:00,
2013-09-12 20:01:00,86.4,57.0,28.54,East,90,0.0,1.0,37,0.00,,,0.00,Rainwise IP-100,2013-09-13 01:01:00,
2013-09-12 20:06:00,85.9,57.0,28.55,East,90,1.4,2.0,38,0.00,,,0.00,Rainwise IP-100,2013-09-13 01:06:00,
2013-09-12 20:11:00,85.4,57.0,28.55,East,90,0.0,1.0,38,0.00,,,0.00,Rainwise IP-100,2013-09-13 01:11:00,
2013-09-12 20:16:00,85.1,57.0,28.55,East,90,0.0,0.0,39,0.00,,,0.00,Rainwise IP-100,2013-09-13 01:16:00,
2013-09-12 20:21:00,84.5,58.0,28.55,East,90,0.0,0.0,41,0.00,,,0.00,Rainwise IP-100,2013-09-13 01:21:00,
2013-09-12 20:26:00,83.7,57.0,28.56,East,90,0.0,0.0,41,0.00,,,0.00,Rainwise IP-100,2013-09-13 01:26:00,
2013-09-12 20:31:00,83.1,57.0,28.56,East,90,0.0,1.0,42,0.00,,,0.00,Rainwise IP-100,2013-09-13 01:31:00,
2013-09-12 20:36:00,82.8,58.0,28.56,East,90,0.0,0.0,43,0.00,,,0.00,Rainwise IP-100,2013-09-13 01:36:00,
2013-09-12 20:41:00,82.6,57.0,28.56,East,90,1.2,2.0,43,0.00,,,0.00,Rainwise IP-100,2013-09-13 01:41:00,
2013-09-12 20:46:00,82.7,58.0,28.56,East,90,1.9,2.0,43,0.00,,,0.00,Rainwise IP-100,2013-09-13 01:46:00,
2013-09-12 20:51:00,82.8,58.0,28.56,East,90,0.0,2.0,43,0.00,,,0.00,Rainwise IP-100,2013-09-13 01:51:00,
2013-09-12 20:56:00,82.6,57.0,28.56,East,90,0.0,1.0,43,0.00,,,0.00,Rainwise IP-100,2013-09-13 01:56:00,
2013-09-12 21:01:00,82.3,58.0,28.56,East,90,0.0,1.0,44,0.00,,,0.00,Rainwise IP-100,2013-09-13 02:01:00,
2013-09-12 21:06:00,81.9,57.0,28.56,East,90,0.0,0.0,44,0.00,,,0.00,Rainwise IP-100,2013-09-13 02:06:00,
2013-09-12 21:11:00,81.4,58.0,28.57,East,90,0.0,0.0,45,0.00,,,0.00,Rainwise IP-100,2013-09-13 02:11:00,
2013-09-12 21:16:00,81.2,58.0,28.57,East,90,0.0,2.0,45,0.00,,,0.00,Rainwise IP-100,2013-09-13 02:16:00,
2013-09-12 21:21:00,81.5,58.0,28.57,East,90,2.1,2.1,45,0.00,,,0.00,Rainwise IP-100,2013-09-13 02:21:00,
2013-09-12 21:26:00,82.0,59.0,28.57,East,90,1.4,2.0,45,0.00,,,0.00,Rainwise IP-100,2013-09-13 02:26:00,
2013-09-12 21:31:00,82.3,59.0,28.57,East,90,1.2,2.0,45,0.00,,,0.00,Rainwise IP-100,2013-09-13 02:31:00,
2013-09-12 21:36:00,82.3,59.0,28.57,East,90,0.0,1.0,45,0.00,,,0.00,Rainwise IP-100,2013-09-13 02:36:00,
2013-09-12 21:41:00,82.0,59.0,28.57,East,90,0.0,1.0,45,0.00,,,0.00,Rainwise IP-100,2013-09-13 02:41:00,
2013-09-12 21:46:00,81.8,58.0,28.58,East,90,0.0,1.0,45,0.00,,,0.00,Rainwise IP-100,2013-09-13 02:46:00,
2013-09-12 21:51:00,81.4,58.0,28.57,East,90,0.0,0.0,45,0.00,,,0.00,Rainwise IP-100,2013-09-13 02:51:00,
2013-09-12 21:56:00,80.9,58.0,28.58,East,90,0.0,0.0,46,0.00,,,0.00,Rainwise IP-100,2013-09-13 02:56:00,
2013-09-12 22:01:00,80.4,58.0,28.58,East,90,0.0,0.0,47,0.00,,,0.00,Rainwise IP-100,2013-09-13 03:01:00,
2013-09-12 22:06:00,80.4,58.0,28.57,East,90,0.0,1.0,47,0.00,,,0.00,Rainwise IP-100,2013-09-13 03:06:00,
2013-09-12 22:11:00,81.0,59.0,28.58,East,90,0.0,1.0,47,0.00,,,0.00,Rainwise IP-100,2013-09-13 03:11:00,
2013-09-12 22:16:00,81.2,59.0,28.57,East,90,0.0,0.0,47,0.00,,,0.00,Rainwise IP-100,2013-09-13 03:16:00,
2013-09-12 22:21:00,81.2,59.0,28.58,East,90,0.0,1.0,47,0.00,,,0.00,Rainwise IP-100,2013-09-13 03:21:00,
2013-09-12 22:26:00,81.1,59.0,28.58,East,90,0.0,0.0,47,0.00,,,0.00,Rainwise IP-100,2013-09-13 03:26:00,
2013-09-12 22:31:00,80.7,59.0,28.57,East,90,0.0,0.0,47,0.00,,,0.00,Rainwise IP-100,2013-09-13 03:31:00,
2013-09-12 22:36:00,80.3,59.0,28.58,East,90,0.0,0.0,48,0.00,,,0.00,Rainwise IP-100,2013-09-13 03:36:00,
2013-09-12 22:41:00,79.7,59.0,28.57,East,90,0.0,0.0,49,0.00,,,0.00,Rainwise IP-100,2013-09-13 03:41:00,
2013-09-12 22:46:00,79.1,58.0,28.58,East,90,0.0,0.0,49,0.00,,,0.00,Rainwise IP-100,2013-09-13 03:46:00,
2013-09-12 22:51:00,78.7,59.0,28.58,East,90,0.0,0.0,50,0.00,,,0.00,Rainwise IP-100,2013-09-13 03:51:00,
2013-09-12 22:56:00,78.4,59.0,28.58,East,90,0.0,0.0,51,0.00,,,0.00,Rainwise IP-100,2013-09-13 03:56:00,
2013-09-12 23:01:00,78.0,58.0,28.58,East,90,0.0,0.0,51,0.00,,,0.00,Rainwise IP-100,2013-09-13 04:01:00,
2013-09-12 23:06:00,77.5,59.0,28.58,East,90,0.0,0.0,52,0.00,,,0.00,Rainwise IP-100,2013-09-13 04:06:00,
2013-09-12 23:11:00,77.1,59.0,28.58,East,90,0.0,0.0,53,0.00,,,0.00,Rainwise IP-100,2013-09-13 04:11:00,
2013-09-12 23:16:00,76.9,59.0,28.58,East,90,0.0,0.0,54,0.00,,,0.00,Rainwise IP-100,2013-09-13 04:16:00,
2013-09-12 23:21:00,76.7,59.0,28.59,East,90,0.0,0.0,54,0.00,,,0.00,Rainwise IP-100,2013-09-13 04:21:00,
2013-09-12 23:26:00,76.4,59.0,28.58,East,90,0.0,0.0,55,0.00,,,0.00,Rainwise IP-100,2013-09-13 04:26:00,
2013-09-12 23:31:00,76.1,59.0,28.58,East,90,0.0,0.0,55,0.00,,,0.00,Rainwise IP-100,2013-09-13 04:31:00,
2013-09-12 23:36:00,75.8,59.0,28.58,East,90,0.0,0.0,56,0.00,,,0.00,Rainwise IP-100,2013-09-13 04:36:00,
2013-09-12 23:41:00,75.4,59.0,28.58,East,90,0.0,0.0,56,0.00,,,0.00,Rainwise IP-100,2013-09-13 04:41:00,
2013-09-12 23:46:00,75.2,59.0,28.57,East,90,0.0,0.0,57,0.00,,,0.00,Rainwise IP-100,2013-09-13 04:46:00,
2013-09-12 23:51:00,75.2,59.0,28.58,East,90,0.0,0.0,57,0.00,,,0.00,Rainwise IP-100,2013-09-13 04:51:00,
2013-09-12 23:56:00,75.1,59.0,28.57,East,90,0.0,0.0,57,0.00,,,0.00,Rainwise IP-100,2013-09-13 04:56:00,